Regional Weather Roundup
Issued by NWS

Home | Current Version | Previous Version | Text Only | Print | Product List | Glossary Off
Versions: 1 2 3 4 5 6 7 8 9 10 11 12 13 14 15 16 17 18 19 20 21 22 23 24 25 26 27 28 29 30 31 32 33 34 35 36 37 38 39 40 41 42 43 44 45 46

000
ASUS45 KCYS 030810
RWRWY

WYOMING REGIONAL WEATHER ROUNDUP
NATIONAL WEATHER SERVICE CHEYENNE WY
200 AM MDT MON AUG 03 2015

NOTE:  "FAIR" INDICATES FEW OR NO CLOUDS BELOW 12,000 FEET
WITH NO SIGNIFICANT WEATHER AND/OR OBSTRUCTIONS TO VISIBILITY.

WYZ001-030900-
YELLOWSTONE NATIONAL PARK

CITY           SKY/WX    TMP DP  RH WIND       PRES   REMARKS
LK YELLOWSTONE   N/A     48  36  63 NW3       30.26F
W YELLOWSTONE  NOT AVBL

$$
WYZ002>013-054>058-071-098>099-030900-
NORTHERN WYOMING

CITY           SKY/WX    TMP DP  RH WIND       PRES   REMARKS
JACKSON        NOT AVBL
CODY           FAIR      64  39  39 S6        30.07F
GREYBULL       FAIR      68  42  38 E3        29.98R
WORLAND        FAIR      63  38  39 S3        29.99F
SHERIDAN       FAIR      60  45  57 CALM      30.03F
BUFFALO        FAIR      63  43  48 VRB3      30.10F
GILLETTE       FAIR      59  49  69 CALM      30.06S
HULETT         FAIR      63  46  55 CALM      30.07F
NEWCASTLE      FAIR      61  46  59 CALM      30.06F

$$
WYZ014>020-022>026-101>103-030900-
CENTRAL WYOMING

CITY           SKY/WX    TMP DP  RH WIND       PRES   REMARKS
BIG PINEY      FAIR      55  33  43 NW5       30.19R
PINEDALE       FAIR      61  28  29 E3        30.20R
DUBOIS         NOT AVBL
LANDER         FAIR      67  33  28 W10       30.09F
RIVERTON       FAIR      72  40  31 S12       30.11R
CASPER         FAIR      66  52  60 E9        30.07F
DOUGLAS        FAIR      63  53  70 S5        30.08S

$$
WYZ021-027>030-104>119-030900-
SOUTHERN WYOMING

CITY           SKY/WX    TMP DP  RH WIND       PRES   REMARKS
EVANSTON       CLOUDY    66  44  45 S12G20    30.21R
KEMMERER       FAIR      68  37  32 SW5       30.19F
FORT BRIDGER   PTSUNNY   70  39  32 SW8       30.18F
ROCK SPRINGS   FAIR      64  47  53 CALM      30.16S
DIXON          FAIR      61  49  65 N3        30.21F
RAWLINS        FAIR      66  46  48 SW9       30.17F
SARATOGA       FAIR      61  45  55 CALM      30.21S
LARAMIE        FAIR      61  45  55 S9        30.20F
CHEYENNE       FAIR      62  51  67 W5        30.13F
TORRINGTON     FAIR      64  54  69 NE10      29.99F
PINE BLUFFS    FAIR      61  52  72 S5        30.08F

$$


USA.gov is the U.S. government's official web portal to all federal, state and local government web resources and services.